H1 CPF 2 NER 2024 8 21 9 234 01 glonass138 H2 1805301 9138 43508 2024 8 21 0 0 0 2024 8 24 23 45 0 900 1 1 0 0 0 1 H9 10 0 60543 0.00000 0 13095157.250 -767217.256 -21865265.906 10 0 60543 900.00000 0 11497612.314 1477086.778 -22712735.357 10 0 60543 1800.00000 0 10032514.006 3900286.052 -23118704.747 10 0 60543 2700.00000 0 8741895.656 6445485.878 -23075384.729 10 0 60543 3600.00000 0 7657217.691 9049134.295 -22583719.572 10 0 60543 4500.00000 0 6798177.408 11643453.803 -21653360.861 10 0 60543 5400.00000 0 6172029.673 14159058.092 -20302472.736 10 0 60543 6300.00000 0 5773445.534 16527645.422 -18557372.860 10 0 60543 7200.00000 0 5584913.147 18684657.125 -16452016.433 10 0 60543 8100.00000 0 5577662.763 20571791.288 -14027333.364 10 0 60543 9000.00000 0 5713075.588 22139267.719 -11330431.512 10 0 60543 9900.00000 0 5944516.210 23347750.593 -8413681.372 10 0 60543 10800.00000 0 6219510.549 24169849.475 -5333699.896 10 0 60543 11700.00000 0 6482176.891 24591136.902 -2150253.024 10 0 60543 12600.00000 0 6675807.062 24610640.862 1074901.848 10 0 60543 13500.00000 0 6745488.459 24240792.363 4279211.074 10 0 60543 14400.00000 0 6640656.098 23506830.992 7400534.569 10 0 60543 15300.00000 0 6317466.738 22445693.937 10378346.852 10 0 60543 16200.00000 0 5740894.697 21104435.392 13154906.208 10 0 60543 17100.00000 0 4886460.620 19538242.766 15676369.592 10 0 60543 18000.00000 0 3741519.835 17808132.747 17893831.998 10 0 60543 18900.00000 0 2306055.342 15978423.459 19764270.591 10 0 60543 19800.00000 0 592941.008 14114088.011 21251375.839 10 0 60543 20700.00000 0 -1372337.350 12278099.570 22326253.976 10 0 60543 21600.00000 0 -3552492.933 10528878.217 22967987.623 10 0 60543 22500.00000 0 -5899748.848 8917945.548 23164043.983 10 0 60543 23400.00000 0 -8357596.028 7487884.304 22910522.707 10 0 60543 24300.00000 0 -10862926.736 6270687.693 22212238.477 10 0 60543 25200.00000 0 -13348456.468 5286566.886 21082636.197 10 0 60543 26100.00000 0 -15745334.792 4543266.277 19543539.741 10 0 60543 27000.00000 0 -17985837.522 4035914.955 17624738.235 10 0 60543 27900.00000 0 -20006028.748 3747420.538 15363416.908 10 0 60543 28800.00000 0 -21748281.997 3649388.749 12803442.583 10 0 60543 29700.00000 0 -23163555.224 3703529.983 9994516.868 10 0 60543 30600.00000 0 -24213324.172 3863493.365 6991212.859 10 0 60543 31500.00000 0 -24871092.601 4077050.544 3851913.842 10 0 60543 32400.00000 0 -25123415.468 4288536.295 637674.669 10 0 60543 33300.00000 0 -24970391.583 4441441.850 -2588971.605 10 0 60543 34200.00000 0 -24425604.608 4481050.041 -5765237.885 10 0 60543 35100.00000 0 -23515514.793 4356999.429 -8829313.201 10 0 60543 36000.00000 0 -22278327.133 4025667.400 -11721573.958 10 0 60543 36900.00000 0 -20762384.015 3452269.983 -14385751.612 10 0 60543 37800.00000 0 -19024150.561 2612588.212 -16770033.229 10 0 60543 38700.00000 0 -17125878.084 1494246.873 -18828072.906 10 0 60543 39600.00000 0 -15133044.551 97490.650 -20519894.024 10 0 60543 40500.00000 0 -13111680.046 -1564575.908 -21812664.840 10 0 60543 41400.00000 0 -11125689.697 -3466295.398 -22681332.622 10 0 60543 42300.00000 0 -9234286.243 -5570299.228 -23109104.537 10 0 60543 43200.00000 0 -7489639.309 -7828849.154 -23087766.649 10 0 60543 44100.00000 0 -5934838.969 -10185623.007 -22617835.560 10 0 60543 45000.00000 0 -4602257.649 -12577870.410 -21708540.473 10 0 60543 45900.00000 0 -3512377.464 -14938848.944 -20377636.633 10 0 60543 46800.00000 0 -2673130.443 -17200439.673 -18651054.221 10 0 60543 47700.00000 0 -2079777.544 -19295833.453 -16562389.833 10 0 60543 48600.00000 0 -1715329.836 -21162176.616 -14152250.560 10 0 60543 49500.00000 0 -1551492.541 -22743066.333 -11467463.400 10 0 60543 50400.00000 0 -1550090.871 -23990792.096 -8560165.304 10 0 60543 51300.00000 0 -1664916.441 -24868230.454 -5486791.434 10 0 60543 52200.00000 0 -1843915.541 -25350314.423 -2306981.110 10 0 60543 53100.00000 0 -2031626.286 -25425016.769 917577.360 10 0 60543 54000.00000 0 -2171761.313 -25093806.576 4124340.642 10 0 60543 54900.00000 0 -2209826.645 -24371560.498 7251120.081 10 0 60543 55800.00000 0 -2095665.950 -23285932.772 10237283.736 10 0 60543 56700.00000 0 -1785822.572 -21876210.630 13024927.646 10 0 60543 57600.00000 0 -1245619.455 -20191703.085 15559993.878 10 0 60543 58500.00000 0 -450868.900 -18289730.404 17793314.029 10 0 60543 59400.00000 0 610860.391 -16233298.022 19681558.402 10 0 60543 60300.00000 0 1939473.097 -14088551.588 21188072.995 10 0 60543 61200.00000 0 3522107.316 -11922118.769 22283588.539 10 0 60543 62100.00000 0 5333436.286 -9798447.954 22946788.293 10 0 60543 63000.00000 0 7336500.784 -7777254.007 23164723.862 10 0 60543 63900.00000 0 9484039.149 -5911176.757 22933071.036 10 0 60543 64800.00000 0 11720261.187 -4243749.081 22256220.507 10 0 60543 65700.00000 0 13982993.717 -2807758.669 21147201.233 10 0 60543 66600.00000 0 16206109.763 -1624071.309 19627437.232 10 0 60543 67500.00000 0 18322141.331 -700964.478 17726341.643 10 0 60543 68400.00000 0 20264967.610 -33998.794 15480754.911 10 0 60543 69300.00000 0 21972466.781 393567.520 12934237.059 10 0 60543 70200.00000 0 23389020.585 609838.817 10136226.937 10 0 60543 71100.00000 0 24467766.536 652856.731 7141084.160 10 0 60543 72000.00000 0 25172502.743 568749.944 4007032.085 10 0 60543 72900.00000 0 25479164.682 409537.767 795022.439 10 0 60543 73800.00000 0 25376811.068 230681.262 -2432455.927 10 0 60543 74700.00000 0 24868076.694 88486.581 -5612600.225 10 0 60543 75600.00000 0 23969072.662 37471.724 -8683524.140 10 0 60543 76500.00000 0 22708737.956 127809.545 -11585470.519 10 0 60543 77400.00000 0 21127669.666 402956.682 -14261981.674 10 0 60543 78300.00000 0 19276481.300 897570.036 -16661003.690 10 0 60543 79200.00000 0 17213758.630 1635800.106 -18735902.647 10 0 60543 80100.00000 0 15003699.400 2630034.284 -20446372.629 10 0 60543 81000.00000 0 12713536.368 3880143.956 -21759217.851 10 0 60543 81900.00000 0 10410851.891 5373267.775 -22648994.025 10 0 60543 82800.00000 0 8160896.536 7084140.743 -23098496.966 10 0 60543 83700.00000 0 6024023.479 8975955.706 -23099089.669 10 0 60543 84600.00000 0 4053345.223 11001721.509 -22650862.220 10 0 60543 85500.00000 0 2292709.475 13106061.292 -21762622.155 10 0 60544 0.00000 0 775077.470 15227375.869 -20451716.211 10 0 60544 900.00000 0 -478629.899 17300283.328 -18743686.617 10 0 60544 1800.00000 0 -1460169.742 19258230.484 -16671770.747 10 0 60544 2700.00000 0 -2174076.443 21036171.353 -14276251.672 10 0 60544 3600.00000 0 -2637218.161 22573198.393 -11603673.880 10 0 60544 4500.00000 0 -2877831.699 23815018.137 -8705938.723 10 0 60544 5400.00000 0 -2934077.623 24716168.016 -5639297.141 10 0 60544 6300.00000 0 -2852177.721 25241882.070 -2463259.101 10 0 60544 7200.00000 0 -2684214.207 25369527.879 760559.150 10 0 60544 8100.00000 0 -2485684.242 25089554.881 3969627.736 10 0 60544 9000.00000 0 -2312913.446 24405914.679 7101712.654 10 0 60544 9900.00000 0 -2220437.924 23335935.868 10096078.742 10 0 60544 10800.00000 0 -2258465.497 21909658.719 12894662.974 10 0 60544 11700.00000 0 -2470523.461 20168657.426 15443195.605 10 0 60544 12600.00000 0 -2891392.252 18164398.953 17692247.753 10 0 60544 13500.00000 0 -3545412.449 15956206.577 19598185.583 10 0 60544 14400.00000 0 -4445236.858 13608912.554 21124013.117 10 0 60544 15300.00000 0 -5591080.945 11190297.056 22240087.801 10 0 60544 16200.00000 0 -6970504.127 8768419.223 22924695.414 10 0 60544 17100.00000 0 -8558732.431 6408950.540 23164473.465 10 0 60544 18000.00000 0 -10319510.530 4172620.630 22954674.918 10 0 60544 18900.00000 0 -12206449.193 2112880.854 22299266.995 10 0 60544 19800.00000 0 -14164813.508 273882.215 21210862.657 10 0 60544 20700.00000 0 -16133678.708 -1311148.877 19710485.416 10 0 60544 21600.00000 0 -18048364.871 -2621069.758 17827171.160 10 0 60544 22500.00000 0 -19843049.732 -3647467.651 15597413.711 10 0 60544 23400.00000 0 -21453450.894 -4394766.066 13064463.935 10 0 60544 24300.00000 0 -22819465.318 -4879787.394 10277495.129 10 0 60544 25200.00000 0 -23887655.249 -5130790.427 7290650.294 10 0 60544 26100.00000 0 -24613475.624 -5186023.831 4161989.501 10 0 60544 27000.00000 0 -24963148.606 -5091857.189 952357.862 10 0 60544 27900.00000 0 -24915105.415 -4900569.404 -2275803.499 10 0 60544 28800.00000 0 -24460933.867 -4667888.988 -5459679.610 10 0 60544 29700.00000 0 -23605790.860 -4450391.518 -8537312.246 10 0 60544 30600.00000 0 -22368261.817 -4302865.745 -11448814.005 10 0 60544 31500.00000 0 -20779672.649 -4275761.186 -14137541.173 10 0 60544 32400.00000 0 -18882883.043 -4412826.517 -16551201.726 10 0 60544 33300.00000 0 -16730611.908 -4749039.802 -18642876.248 10 0 60544 34200.00000 0 -14383365.529 -5308918.988 -20371931.592 10 0 60544 35100.00000 0 -11907055.579 -6105284.751 -21704809.467 10 0 60544 36000.00000 0 -9370406.899 -7138528.407 -22615674.945 10 0 60544 36900.00000 0 -6842263.511 -8396416.102 -23086912.769 10 0 60544 37800.00000 0 -4388905.111 -9854437.774 -23109462.507 10 0 60544 38700.00000 0 -2071485.478 -11476686.462 -22682986.773 10 0 60544 39600.00000 0 56301.249 -13217231.225 -21815869.964 10 0 60544 40500.00000 0 1950230.346 -15021926.352 -20525048.131 10 0 60544 41400.00000 0 3577150.022 -16830581.326 -18835673.766 10 0 60544 42300.00000 0 4916113.445 -18579400.987 -16780622.317 10 0 60544 43200.00000 0 5958993.860 -20203594.046 -14399850.155 10 0 60544 44100.00000 0 6710558.957 -21640041.156 -11739616.490 10 0 60544 45000.00000 0 7188003.172 -22829911.138 -8851584.275 10 0 60544 45900.00000 0 7419959.252 -23721116.130 -5791817.487 10 0 60544 46800.00000 0 7445032.094 -24270503.139 -2619694.097 10 0 60544 47700.00000 0 7309917.764 -24445690.321 603244.218 10 0 60544 48600.00000 0 7067187.895 -24226471.270 3814483.367 10 0 60544 49500.00000 0 6772833.587 -23605728.491 6951746.143 10 0 60544 50400.00000 0 6483672.849 -22589817.799 9954196.103 10 0 60544 51300.00000 0 6254731.256 -21198407.380 12763612.895 10 0 60544 52200.00000 0 6136706.465 -19463777.993 15325516.481 10 0 60544 53100.00000 0 6173623.586 -17429613.137 17590218.806 10 0 60544 54000.00000 0 6400780.356 -15149329.131 19513782.965 10 0 60544 54900.00000 0 6843068.865 -12684014.024 21058871.837 10 0 60544 55800.00000 0 7513744.869 -10100060.359 22195470.163 10 0 60544 56700.00000 0 8413697.072 -7466589.366 22901466.580 10 0 60544 57600.00000 0 9531247.987 -4852772.642 23163084.596 10 0 60544 58500.00000 0 10842495.957 -2325161.672 22975154.237 10 0 60544 59400.00000 0 12312185.352 54864.852 22341218.947 10 0 60544 60300.00000 0 13895070.039 2233430.687 21273475.215 10 0 60544 61200.00000 0 15537714.507 4166172.512 19792545.431 10 0 60544 62100.00000 0 17180658.593 5819848.156 17927087.477 10 0 60544 63000.00000 0 18760856.243 7173476.012 15713247.670 10 0 60544 63900.00000 0 20214286.832 8218958.436 13193966.667 10 0 60544 64800.00000 0 21478629.839 8961163.416 10418150.996 10 0 60544 65700.00000 0 22495890.507 9417461.450 7439725.618 10 0 60544 66600.00000 0 23214865.588 9616737.569 4316585.673 10 0 60544 67500.00000 0 23593344.674 9597920.703 1109467.787 10 0 60544 68400.00000 0 23599953.384 9408093.197 -2119236.721 10 0 60544 69300.00000 0 23215559.632 9100261.292 -5306702.927 10 0 60544 70200.00000 0 22434182.656 8730881.961 -8390903.029 10 0 60544 71100.00000 0 21263365.544 8357251.978 -11311821.740 10 0 60544 72000.00000 0 19723994.850 8034870.982 -14012631.667 10 0 60544 72900.00000 0 17849574.402 7814891.353 -16440804.940 10 0 60544 73800.00000 0 15684983.589 7741763.853 -18549138.825 10 0 60544 74700.00000 0 13284772.197 7851179.448 -20296675.009 10 0 60544 75600.00000 0 10711063.344 8168394.891 -21649494.652 10 0 60544 76500.00000 0 8031152.329 8707013.148 -22581374.014 10 0 60544 77400.00000 0 5314901.754 9468270.255 -23074288.421 10 0 60544 78300.00000 0 2632041.431 10440858.716 -23118755.440 10 0 60544 79200.00000 0 49485.184 11601294.802 -22714011.337 10 0 60544 80100.00000 0 -2371224.367 12914814.271 -21868018.096 10 0 60544 81000.00000 0 -4576237.694 14336758.838 -20597301.498 10 0 60544 81900.00000 0 -6521391.523 15814395.234 -18926623.845 10 0 60544 82800.00000 0 -8173791.783 17289090.622 -16888498.039 10 0 60544 83700.00000 0 -9512922.016 18698753.279 -14522552.558 10 0 60544 84600.00000 0 -10531232.845 19980436.367 -11874759.700 10 0 60544 85500.00000 0 -11234189.612 21072995.789 -8996542.030 10 0 60545 0.00000 0 -11639777.960 21919690.765 -5943774.533 10 0 60545 900.00000 0 -11777489.846 22470618.569 -2775700.092 10 0 60545 1800.00000 0 -11686833.516 22684880.288 446216.635 10 0 60545 2700.00000 0 -11415431.955 22532388.251 3659480.184 10 0 60545 3600.00000 0 -11016790.183 21995238.029 6801773.049 10 0 60545 4500.00000 0 -10547826.343 21068587.806 9812160.448 10 0 60545 5400.00000 0 -10066270.988 19761007.853 12632267.616 10 0 60545 6300.00000 0 -9628044.362 18094285.039 15207407.082 10 0 60545 7200.00000 0 -9284722.263 16102689.967 17487634.369 10 0 60545 8100.00000 0 -9081197.227 13831736.586 19428712.119 10 0 60545 9000.00000 0 -9053633.463 11336485.124 20992964.483 10 0 60545 9900.00000 0 -9227801.706 8679458.028 22150005.683 10 0 60545 10800.00000 0 -9617864.246 5928254.486 22877329.100 10 0 60545 11700.00000 0 -10225661.676 3152961.511 23160745.776 10 0 60545 12600.00000 0 -11040532.082 423467.979 22994663.915 10 0 60545 13500.00000 0 -12039671.225 -2193207.969 22382203.829 10 0 60545 14400.00000 0 -13189019.835 -4635468.201 21335145.661 10 0 60545 15300.00000 0 -14444642.035 -6849455.431 19873710.243 10 0 60545 16200.00000 0 -15754538.321 -8791049.816 18026176.463 10 0 60545 17100.00000 0 -17060818.128 -10427458.694 15828341.580 10 0 60545 18000.00000 0 -18302141.549 -11738333.526 13322834.001 10 0 60545 18900.00000 0 -19416328.072 -12716367.693 10558290.984 10 0 60545 19800.00000 0 -20343022.670 -13367350.408 7588416.598 10 0 60545 20700.00000 0 -21026306.632 -13709674.828 4470937.915 10 0 60545 21600.00000 0 -21417142.402 -13773321.552 1266479.749 10 0 60545 22500.00000 0 -21475548.348 -13598360.951 -1962619.837 10 0 60545 23400.00000 0 -21172410.506 -13233038.369 -5153529.483 10 0 60545 24300.00000 0 -20490853.649 -12731524.086 -8244155.329 10 0 60545 25200.00000 0 -19427112.663 -12151424.301 -11174357.679 10 0 60545 26100.00000 0 -17990866.472 -11551159.603 -13887128.816 10 0 60545 27000.00000 0 -16205019.645 -10987322.978 -16329708.185 10 0 60545 27900.00000 0 -14104940.300 -10512130.100 -18454612.590 10 0 60545 28800.00000 0 -11737185.947 -10171070.501 -20220561.002 10 0 60545 29700.00000 0 -9157770.531 -10000859.398 -21593275.938 10 0 60545 30600.00000 0 -6430045.033 -10027776.873 -22546146.148 10 0 60545 31500.00000 0 -3622280.142 -10266464.514 -23060738.163 10 0 60545 32400.00000 0 -805051.597 -10719229.971 -23127147.489 10 0 60545 33300.00000 0 1951463.240 -11375888.435 -22744183.320 10 0 60545 34200.00000 0 4580165.586 -12214147.295 -21919383.918 10 0 60545 35100.00000 0 7019581.590 -13200517.438 -20668862.954 10 0 60545 36000.00000 0 9216169.971 -14291712.611 -19016990.275 10 0 60545 36900.00000 0 11126296.213 -15436477.800 -16995913.598 10 0 60545 37800.00000 0 12717792.612 -16577769.722 -14644930.577 10 0 60545 38700.00000 0 13971040.779 -17655197.793 -12009723.444 10 0 60545 39600.00000 0 14879533.061 -18607623.040 -9141471.042 10 0 60545 40500.00000 0 15449891.136 -19375805.789 -6095855.396 10 0 60545 41400.00000 0 15701342.577 -19904990.916 -2931981.977 10 0 60545 42300.00000 0 15664678.789 -20147321.998 288765.442 10 0 60545 43200.00000 0 15380739.347 -20063982.841 3503913.182 10 0 60545 44100.00000 0 14898487.456 -19626976.262 6651106.328 10 0 60545 45000.00000 0 14272758.254 -18820465.140 9669314.296 10 0 60545 45900.00000 0 13561775.261 -17641619.071 12500010.055 10 0 60545 46800.00000 0 12824539.765 -16100930.557 15088300.411 10 0 60545 47700.00000 0 12118203.111 -14221986.776 17383985.736 10 0 60545 48600.00000 0 11495532.408 -12040705.569 19342529.051 10 0 60545 49500.00000 0 11002576.072 -9604066.468 20925916.196 10 0 60545 50400.00000 0 10676627.216 -6968388.476 22103390.895 10 0 60545 51300.00000 0 10544570.408 -4197224.987 22852050.948 10 0 60545 52200.00000 0 10621681.302 -1358961.974 23157294.287 10 0 60545 53100.00000 0 10910929.873 1475782.082 23013106.383 10 0 60545 54000.00000 0 11402817.035 4236847.877 22422183.280 10 0 60545 54900.00000 0 12075752.246 6857207.991 21395887.460 10 0 60545 55800.00000 0 12896957.185 9275510.564 19954036.756 10 0 60545 56700.00000 0 13823858.513 11438388.994 18124529.516 10 0 60545 57600.00000 0 14805912.147 13302442.113 15942812.323 10 0 60545 58500.00000 0 15786783.099 14835802.650 13451199.642 10 0 60545 59400.00000 0 16706789.657 16019228.750 10698057.714 10 0 60545 60300.00000 0 17505509.078 16846673.078 7736867.882 10 0 60545 61200.00000 0 18124434.710 17325305.809 4625187.247 10 0 60545 62100.00000 0 18509571.823 17474990.872 1423526.835 10 0 60545 63000.00000 0 18613861.577 17327237.921 -1805830.567 10 0 60545 63900.00000 0 18399329.606 16923674.868 -5000049.197 10 0 60545 64800.00000 0 17838867.127 16314106.254 -8096971.133 10 0 60545 65700.00000 0 16917568.058 15554240.486 -11036334.188 10 0 60545 66600.00000 0 15633564.490 14703183.052 -13760952.132 10 0 60545 67500.00000 0 13998324.196 13820802.769 -16217833.406 10 0 60545 68400.00000 0 12036396.819 12965083.303 -18359215.905 10 0 60545 69300.00000 0 9784618.750 12189572.670 -20143497.315 10 0 60545 70200.00000 0 7290809.588 11541038.859 -21536042.859 10 0 60545 71100.00000 0 4612014.459 11057430.711 -22509855.007 10 0 60545 72000.00000 0 1812365.408 10766229.886 -23046092.606 10 0 60545 72900.00000 0 -1039349.169 10683262.978 -23134430.026 10 0 60545 73800.00000 0 -3872306.137 10812023.184 -22773250.065 10 0 60545 74700.00000 0 -6616351.642 11143529.384 -21969667.588 10 0 60545 75600.00000 0 -9204675.768 11656727.806 -20739384.082 10 0 60545 76500.00000 0 -11576347.511 12319418.710 -19106376.406 10 0 60545 77400.00000 0 -13678605.698 13089668.534 -17102426.107 10 0 60545 78300.00000 0 -15468811.810 13917647.641 -14766498.617 10 0 60545 79200.00000 0 -16915984.759 14747816.072 -12143984.341 10 0 60545 80100.00000 0 -18001855.074 15521365.122 -9285816.374 10 0 60545 81000.00000 0 -18721396.009 16178811.851 -6247481.827 10 0 60545 81900.00000 0 -19082810.808 16662637.270 -3087945.846 10 0 60545 82800.00000 0 -19106978.062 16919857.036 131490.871 10 0 60545 83700.00000 0 -18826379.638 16904416.343 3348378.928 10 0 60545 84600.00000 0 -18283557.231 16579308.024 6500328.551 10 0 60545 85500.00000 0 -17529163.222 15918324.476 9526215.917 10 0 60546 0.00000 0 -16619688.414 14907369.461 12367364.049 10 0 60546 900.00000 0 -15614962.018 13545273.499 14968677.081 10 0 60546 1800.00000 0 -14575530.321 11844079.291 17279702.429 10 0 60546 2700.00000 0 -13560022.491 9828782.496 19255605.828 10 0 60546 3600.00000 0 -12622615.139 7536538.751 20858036.959 10 0 60546 4500.00000 0 -11810701.301 5015368.259 22055870.969 10 0 60546 5400.00000 0 -11162861.473 2322410.507 22825811.691 10 0 60546 6300.00000 0 -10707221.551 -478199.786 23152845.233 10 0 60546 7200.00000 0 -10460266.497 -3317748.733 23030535.224 10 0 60546 8100.00000 0 -10426159.584 -6125552.449 22461153.917 10 0 60546 9000.00000 0 -10596596.076 -8831652.334 21455646.168 10 0 60546 9900.00000 0 -10951197.996 -11369485.585 20033426.372 10 0 60546 10800.00000 0 -11458434.012 -13678420.835 18222011.436 10 0 60546 11700.00000 0 -12077026.434 -15706054.066 16056495.913 10 0 60546 12600.00000 0 -12757786.726 -17410169.455 13578878.549 10 0 60546 13500.00000 0 -13445802.648 -18760283.530 10837252.414 10 0 60546 14400.00000 0 -14082884.986 -19738708.107 7884873.666 10 0 60546 15300.00000 0 -14610170.414 -20341087.501 4779126.722 10 0 60546 16200.00000 0 -14970770.039 -20576387.495 1580405.910 10 0 60546 17100.00000 0 -15112350.831 -20466336.791 -1649064.311 10 0 60546 18000.00000 0 -14989539.626 -20044344.785 -4846446.938 10 0 60546 18900.00000 0 -14566046.771 -19353941.945 -7949523.228 10 0 60546 19800.00000 0 -13816418.219 -18446809.381 -10897911.779 10 0 60546 20700.00000 0 -12727340.719 -17380481.728 -13634251.093 10 0 60546 21600.00000 0 -11298443.755 -16215821.325 -16105321.749 10 0 60546 22500.00000 0 -9542563.379 -15014371.256 -18263085.670 10 0 60546 23400.00000 0 -7485455.958 -13835699.703 -20065621.880 10 0 60546 24300.00000 0 -5164973.180 -12734848.140 -21477940.485 10 0 60546 25200.00000 0 -2629732.378 -11759991.079 -22472659.326 10 0 60546 26100.00000 0 62662.621 -10950405.780 -23030530.623 10 0 60546 27000.00000 0 2847776.165 -10334836.868 -23140808.034 10 0 60546 27900.00000 0 5656781.590 -9930323.886 -22801447.767 10 0 60546 28800.00000 0 8419086.924 -9741540.117 -22019140.526 10 0 60546 29700.00000 0 11065036.863 -9760669.403 -20809174.302 10 0 60546 30600.00000 0 13528579.395 -9967825.071 -19195131.175 10 0 60546 31500.00000 0 15749786.983 -10331992.360 -17208424.292 10 0 60546 32400.00000 0 17677128.484 -10812453.847 -14887684.199 10 0 60546 33300.00000 0 19269398.328 -11360637.190 -12278006.439 10 0 60546 34200.00000 0 20497223.749 -11922306.874 -9430074.972 10 0 60546 35100.00000 0 21344088.471 -12440007.254 -6399178.342 10 0 60546 36000.00000 0 21806831.341 -12855653.693 -3244137.532 10 0 60546 36900.00000 0 21895600.234 -13113162.388 -26166.283 10 0 60546 37800.00000 0 21633264.346 -13161007.849 3192314.106 10 0 60546 38700.00000 0 21054310.425 -12954600.060 6348882.568 10 0 60546 39600.00000 0 20203270.123 -12458380.892 9382325.264 10 0 60546 40500.00000 0 19132745.009 -11647551.131 12233818.519 10 0 60546 41400.00000 0 17901112.553 -10509354.925 14848064.994 10 0 60546 42300.00000 0 16570009.480 -9043866.970 17174361.359 10 0 60546 43200.00000 0 15201698.025 -7264248.450 19167577.175 10 0 60546 44100.00000 0 13856425.277 -5196459.818 20789026.564 10 0 60546 45000.00000 0 12589885.936 -2878441.079 22007216.185 10 0 60546 45900.00000 0 11450894.309 -358792.197 22798455.557 10 0 60546 46800.00000 0 10479362.625 2304993.041 23147318.194 10 0 60546 47700.00000 0 9704669.941 5048667.876 23046944.759 10 0 60546 48600.00000 0 9144489.698 7803660.755 22499182.258 10 0 60546 49500.00000 0 8804124.962 10499691.460 21514556.188 10 0 60546 50400.00000 0 8676379.304 13067467.677 20112075.550 10 0 60546 51300.00000 0 8741968.967 15441350.908 18318873.665 10 0 60546 52200.00000 0 8970459.324 17561881.520 16169690.792 10 0 60546 53100.00000 0 9321686.581 19378058.039 13706207.592 10 0 60546 54000.00000 0 9747605.090 20849275.758 10976241.542 10 0 60546 54900.00000 0 10194482.462 21946843.536 8032821.148 10 0 60546 55800.00000 0 10605349.608 22655015.071 4933155.663 10 0 60546 56700.00000 0 10922601.685 22971491.236 1737520.263 10 0 60546 57600.00000 0 11090639.154 22907372.273 -1491921.327 10 0 60546 58500.00000 0 11058436.127 22486561.953 -4692333.154 10 0 60546 59400.00000 0 10781926.015 21744649.109 -7801437.778 10 0 60546 60300.00000 0 10226102.179 20727314.247 -10758736.489 10 0 60546 61200.00000 0 9366743.292 19488329.130 -13506694.196 10 0 60546 62100.00000 0 8191689.230 18087234.575 -15991865.042 10 0 60546 63000.00000 0 6701612.394 16586795.199 -18165936.180 10 0 60546 63900.00000 0 4910250.987 15050339.151 -19986668.966 10 0 60546 64800.00000 0 2844093.575 13539095.401 -21418719.217 10 0 60546 65700.00000 0 541527.488 12109640.863 -22434320.829 10 0 60546 66600.00000 0 -1948513.793 10811564.593 -23013819.907 10 0 60546 67500.00000 0 -4568348.159 9685446.739 -23146049.729 10 0 60546 68400.00000 0 -7253712.751 8761236.250 -22828539.988 10 0 60546 69300.00000 0 -9936212.221 8057094.397 -22067556.978 10 0 60546 70200.00000 0 -12545945.991 7578751.326 -20877974.588 10 0 60546 71100.00000 0 -15014205.759 7319401.294 -19282979.101 10 0 60546 72000.00000 0 -17276131.714 7260139.621 -17313613.856 10 0 60546 72900.00000 0 -19273217.728 7370921.735 -15008172.763 10 0 60546 73800.00000 0 -20955562.105 7612002.865 -12411454.473 10 0 60546 74700.00000 0 -22283771.029 7935796.885 -9573891.594 10 0 60546 75600.00000 0 -23230436.305 8289075.310 -6550571.761 10 0 60546 76500.00000 0 -23781126.700 8615413.196 -3400169.407 10 0 60546 77400.00000 0 -23934852.379 8857778.453 -183808.895 10 0 60546 78300.00000 0 -23703983.958 8961155.008 3036118.986 10 0 60546 79200.00000 0 -23113630.361 8875088.935 6197164.295 10 0 60546 80100.00000 0 -22200502.267 8556049.889 9238025.582 10 0 60546 81000.00000 0 -21011309.305 7969507.976 12099734.610 10 0 60546 81900.00000 0 -19600758.528 7091638.120 14726795.404 10 0 60546 82800.00000 0 -18029238.188 5910579.604 17068255.826 10 0 60546 83700.00000 0 -16360283.768 4427197.018 19078691.310 10 0 60546 84600.00000 0 -14657932.082 2655309.613 20719082.208 10 0 60546 85500.00000 0 -12984073.736 621378.133 21957568.198 99